DW4879 Weather Reports


time (UTC)temp
C
wind
direction
speed
KPH
gust
KPH
rain 1hr
cm
rain 24hr
cm
rain mn
cm
humidity
%
barometer
mb
20260510002058 23 329 20.9 32.2 0.00 0.00 0.00 19 1017.1
20260510001549 23 331 20.9 32.2 0.00 0.00 0.00 19 1016.9
20260510001057 23 338 17.7 33.8 0.00 0.00 0.00 19 1016.7
20260510000605 23 25 19.3 33.8 0.00 0.00 0.00 19 1016.8
20260510000008 23 349 16.1 33.8 0.00 0.00 0.00 20 1016.9
20260509235601 23 340 19.3 38.6 0.00 0.00 0.00 20 1016.8
20260509235003 23 22 25.7 41.8 0.00 0.00 0.00 20 1017.0
20260509234614 23 355 25.7 41.8 0.00 0.00 0.00 19 1016.7
20260509234105 24 336 24.1 35.4 0.00 0.00 0.00 19 1016.8
20260509233558 24 5 22.5 38.6 0.00 0.00 0.00 18 1016.8
20260509233104 25 33 24.1 38.6 0.00 0.00 0.00 17 1016.8
20260509232505 25 329 27.4 38.6 0.00 0.00 0.00 17 1016.8
20260509232017 25 338 20.9 33.8 0.00 0.00 0.00 16 1016.7
20260509231519 26 348 16.1 41.8 0.00 0.00 0.00 12 1016.5
20260509231024 26 348 25.7 43.5 0.00 0.00 0.00 12 1016.6
20260509230532 26 296 16.1 45.1 0.00 0.00 0.00 12 1016.5
20260509230046 26 297 17.7 45.1 0.00 0.00 0.00 12 1016.6
20260509225547 26 295 22.5 40.2 0.00 0.00 0.00 12 1016.5
20260509225036 26 327 19.3 41.8 0.00 0.00 0.00 12 1016.5
20260509224554 26 321 29.0 41.8 0.00 0.00 0.00 12 1016.5
20260509224037 26 317 22.5 32.2 0.00 0.00 0.00 12 1016.6
20260509223541 27 290 19.3 32.2 0.00 0.00 0.00 11 1016.6
20260509223052 27 310 17.7 43.5 0.00 0.00 0.00 11 1016.6
20260509222558 27 314 16.1 43.5 0.00 0.00 0.00 11 1016.7
20260509222046 27 292 22.5 45.1 0.00 0.00 0.00 11 1016.8
20260509221553 27 300 24.1 45.1 0.00 0.00 0.00 12 1016.9
20260509221059 27 309 17.7 35.4 0.00 0.00 0.00 12 1016.9
20260509220605 27 337 17.7 37.0 0.00 0.00 0.00 12 1017.0
20260509220058 27 292 24.1 37.0 0.00 0.00 0.00 11 1016.9
20260509215549 27 303 24.1 33.8 0.00 0.00 0.00 11 1017.1
20260509215057 27 267 16.1 38.6 0.00 0.00 0.00 10 1017.1
20260509214548 27 303 25.7 38.6 0.00 0.00 0.00 11 1017.1
20260509214059 27 315 20.9 37.0 0.00 0.00 0.00 9 1017.2
20260509213544 27 306 24.1 37.0 0.00 0.00 0.00 11 1017.3
20260509213054 27 273 24.1 35.4 0.00 0.00 0.00 10 1017.3
20260509212558 27 319 14.5 32.2 0.00 0.00 0.00 11 1017.4
20260509212048 26 262 17.7 32.2 0.00 0.00 0.00 9 1017.4
20260509211557 26 296 17.7 32.2 0.00 0.00 0.00 12 1017.4
20260509211102 26 307 19.3 35.4 0.00 0.00 0.00 11 1017.7
20260509210505 26 285 20.9 35.4 0.00 0.00 0.00 10 1017.7
20260509210104 26 303 16.1 32.2 0.00 0.00 0.00 12 1017.7
20260509205503 26 299 19.3 29.0 0.00 0.00 0.00 12 1017.7
20260509205010 27 317 17.7 41.8 0.00 0.00 0.00 10 1017.7
20260509204517 27 313 27.4 43.5 0.00 0.00 0.00 11 1017.7
20260509204023 27 294 25.7 43.5 0.00 0.00 0.00 10 1017.7
20260509203530 27 288 19.3 33.8 0.00 0.00 0.00 11 1017.7
20260509203050 27 276 17.7 33.8 0.00 0.00 0.00 11 1017.7
20260509202545 27 278 16.1 41.8 0.00 0.00 0.00 11 1017.8
20260509202035 27 288 25.7 41.8 0.00 0.00 0.00 11 1017.9
20260509201543 27 275 12.9 30.6 0.00 0.00 0.00 12 1017.8
20260509201048 27 281 16.1 32.2 0.00 0.00 0.00 13 1018.2
20260509200556 27 232 11.3 30.6 0.00 0.00 0.00 13 1018.1
20260509200047 26 286 19.3 33.8 0.00 0.00 0.00 13 1018.4
20260509195557 27 277 19.3 33.8 0.00 0.00 0.00 13 1018.2
20260509195101 27 265 12.9 25.7 0.00 0.00 0.00 13 1018.3
20260509194502 26 317 14.5 33.8 0.00 0.00 0.00 13 1018.4
20260509194058 27 338 22.5 33.8 0.00 0.00 0.00 13 1018.4
20260509193502 27 286 9.7 24.1 0.00 0.00 0.00 13 1018.4
20260509193057 26 198 14.5 32.2 0.00 0.00 0.00 14 1018.5
20260509192547 26 267 19.3 32.2 0.00 0.00 0.00 14 1018.7
20260509192056 26 289 14.5 33.8 0.00 0.00 0.00 14 1018.5
20260509191548 27 241 14.5 33.8 0.00 0.00 0.00 13 1018.5
20260509191055 27 324 11.3 30.6 0.00 0.00 0.00 14 1018.6
20260509190545 26 238 16.1 30.6 0.00 0.00 0.00 14 1018.7
20260509190036 26 300 19.3 35.4 0.00 0.00 0.00 14 1018.6
20260509185543 26 304 12.9 35.4 0.00 0.00 0.00 14 1018.9
20260509185034 26 218 9.7 32.2 0.00 0.00 0.00 14 1019.0
20260509184547 26 265 11.3 29.0 0.00 0.00 0.00 14 1019.0
20260509184047 26 293 12.9 29.0 0.00 0.00 0.00 14 1019.1
20260509183557 26 268 19.3 29.0 0.00 0.00 0.00 15 1019.1
20260509183047 26 293 19.3 27.4 0.00 0.00 0.00 14 1019.1
20260509182554 26 316 12.9 25.7 0.00 0.00 0.00 14 1019.1
20260509182100 26 295 12.9 25.7 0.00 0.00 0.00 14 1019.1
20260509181503 27 234 9.7 22.5 0.00 0.00 0.00 14 1019.1
20260509181059 26 203 6.4 17.7 0.00 0.00 0.00 15 1019.1
20260509180500 26 273 8.0 17.7 0.00 0.00 0.00 15 1019.2
20260509180117 26 287 9.7 17.7 0.00 0.00 0.00 15 1019.3
20260509175505 26 234 8.0 16.1 0.00 0.00 0.00 15 1019.3
20260509175104 26 225 6.4 16.1 0.00 0.00 0.00 16 1019.3
20260509174504 25 223 9.7 22.5 0.00 0.00 0.00 16 1019.3
20260509174011 25 280 6.4 22.5 0.00 0.00 0.00 16 1019.3
20260509173502 25 232 4.8 16.1 0.00 0.00 0.00 17 1019.5
20260509173009 25 229 6.4 25.7 0.00 0.00 0.00 16 1019.6
20260509172605 25 240 12.9 25.7 0.00 0.00 0.00 16 1019.6
20260509172006 24 216 3.2 17.7 0.00 0.00 0.00 17 1019.7
20260509171601 24 254 8.0 17.7 0.00 0.00 0.00 17 1019.7
20260509171051 23 245 6.4 16.1 0.00 0.00 0.00 18 1019.6
20260509170600 23 331 6.4 16.1 0.00 0.00 0.00 18 1019.6
20260509170105 23 221 6.4 17.7 0.00 0.00 0.00 18 1019.7
20260509165507 23 298 8.0 16.1 0.00 0.00 0.00 19 1019.6
20260509165103 23 246 8.0 19.3 0.00 0.00 0.00 19 1019.7
20260509164507 23 293 6.4 12.9 0.00 0.00 0.00 19 1019.7
20260509164104 22 296 1.6 12.9 0.00 0.00 0.00 19 1019.7
20260509163504 22 200 8.0 11.3 0.00 0.00 0.00 21 1019.7
20260509163059 22 225 4.8 14.5 0.00 0.00 0.00 21 1019.8
20260509162550 22 191 6.4 14.5 0.00 0.00 0.00 21 1019.8
20260509162059 22 202 3.2 14.5 0.00 0.00 0.00 20 1019.9
20260509161604 21 284 1.6 14.5 0.00 0.00 0.00 21 1019.9
20260509161010 21 269 3.2 14.5 0.00 0.00 0.00 21 1019.8
20260509160603 21 249 1.6 9.7 0.00 0.00 0.00 21 1019.8
20260509160006 21 281 3.2 9.7 0.00 0.00 0.00 22 1019.8
20260509155600 20 294 3.2 8.0 0.00 0.00 0.00 22 1019.9
20260509155003 20 273 3.2 8.0 0.00 0.00 0.00 22 1019.9
20260509154609 20 184 1.6 8.0 0.00 0.00 0.00 23 1019.9
20260509154049 19 244 1.6 6.4 0.00 0.00 0.00 23 1019.9
20260509153559 19 206 3.2 6.4 0.00 0.00 0.00 25 1019.9
20260509153058 18 157 3.2 6.4 0.00 0.00 0.00 25 1019.8
20260509152537 18 79 1.6 6.4 0.00 0.00 0.00 25 1019.9
20260509152048 18 227 1.6 6.4 0.00 0.00 0.00 25 1019.8
20260509151600 17 111 3.2 8.0 0.00 0.00 0.00 25 1019.9
20260509151055 17 151 1.6 9.7 0.00 0.00 0.00 26 1019.9
20260509150604 17 104 3.2 9.7 0.00 0.00 0.00 26 1019.9
20260509150004 16 160 4.8 9.7 0.00 0.00 0.00 27 1019.9
20260509145600 16 136 3.2 9.7 0.00 0.00 0.00 27 1019.9
20260509145003 16 132 3.2 8.0 0.00 0.00 0.00 28 1019.9
20260509144558 16 154 3.2 9.7 0.00 0.00 0.00 28 1019.9
20260509144104 16 110 3.2 9.7 0.00 0.00 0.00 28 1019.8
20260509143555 15 112 4.8 9.7 0.00 0.00 0.00 28 1019.8
20260509143054 15 140 3.2 8.0 0.00 0.00 0.00 29 1019.9
20260509142553 15 130 4.8 11.3 0.00 0.00 0.00 30 1020.0
20260509142100 15 124 4.8 11.3 0.00 0.00 0.00 30 1019.9
20260509141510 14 153 4.8 8.0 0.00 0.00 0.00 30 1019.8
20260509141059 14 117 3.2 6.4 0.00 0.00 0.00 30 1019.9
20260509140500 13 113 4.8 9.7 0.00 0.00 0.00 31 1019.8
20260509140006 13 132 3.2 8.0 0.00 0.00 0.00 31 1019.8
20260509135515 13 103 4.8 8.0 0.00 0.00 0.00 31 1019.7
20260509135005 13 133 4.8 8.0 0.00 0.00 0.00 31 1019.7
20260509134524 12 140 4.8 9.7 0.00 0.00 0.00 32 1019.7
20260509134004 12 115 3.2 9.7 0.00 0.00 0.00 33 1019.6
20260509133510 12 109 4.8 11.3 0.00 0.00 0.00 33 1019.6
20260509133019 12 114 6.4 11.3 0.00 0.00 0.00 33 1019.6
20260509132522 11 128 4.8 11.3 0.00 0.00 0.00 33 1019.6
20260509132029 11 121 4.8 11.3 0.00 0.00 0.00 34 1019.6
20260509131536 11 117 6.4 11.3 0.00 0.00 0.00 34 1019.6
20260509131043 11 103 8.0 11.3 0.00 0.00 0.00 34 1019.5
20260509130534 11 115 3.2 9.7 0.00 0.00 0.00 35 1019.4
20260509130042 10 128 4.8 9.7 0.00 0.00 0.00 35 1019.3
20260509125548 10 113 4.8 11.3 0.00 0.00 0.00 36 1019.2
20260509125056 10 103 3.2 8.0 0.00 0.00 0.00 37 1019.1
20260509124601 10 103 3.2 9.7 0.00 0.00 0.00 37 1019.1
20260509124003 9 90 4.8 9.7 0.00 0.00 0.00 37 1019.0
20260509123601 9 98 4.8 9.7 0.00 0.00 0.00 37 1018.9
20260509123005 9 120 4.8 11.3 0.00 0.00 0.00 37 1018.8
20260509122558 9 104 4.8 11.3 0.00 0.00 0.00 37 1018.8
20260509122105 9 107 6.4 9.7 0.00 0.00 0.00 37 1018.7
20260509121556 9 94 6.4 9.7 0.00 0.00 0.00 37 1018.6
20260509121048 9 95 4.8 6.4 0.00 0.00 0.00 37 1018.5
20260509120554 9 110 3.2 4.8 0.00 0.00 0.00 37 1018.6
20260509120045 9 113 4.8 6.4 0.00 0.00 0.00 36 1018.5
20260509115552 9 112 3.2 6.4 0.00 0.00 0.00 36 1018.5
20260509115059 10 118 3.2 6.4 0.00 0.00 0.00 36 1018.4
20260509114503 10 119 3.2 9.7 0.00 0.00 0.00 36 1018.3
20260509114101 10 109 4.8 9.7 0.00 0.00 0.00 35 1018.4
20260509113501 10 123 4.8 9.7 0.00 0.00 0.00 35 1018.3
20260509113057 10 132 4.8 6.4 0.00 0.00 0.00 34 1018.4
20260509112547 10 139 4.8 6.4 0.00 0.00 0.00 34 1018.4
20260509112055 10 128 3.2 4.8 0.00 0.00 0.00 33 1018.2
20260509111617 10 121 0.0 3.2 0.00 0.00 0.00 33 1018.2
20260509111004 10 106 0.0 3.2 0.00 0.00 0.00 33 1018.1
20260509110559 10 106 1.6 3.2 0.00 0.00 0.00 33 1018.2
20260509110001 11 106 1.6 3.2 0.00 0.00 0.00 33 1018.2
20260509105557 11 106 0.0 3.2 0.00 0.00 0.00 33 1018.2
20260509105048 11 106 0.0 3.2 0.00 0.00 0.00 33 1017.9
20260509104609 11 121 1.6 4.8 0.00 0.00 0.00 32 1017.9
20260509104046 11 132 1.6 4.8 0.00 0.00 0.00 32 1017.9
20260509103555 11 136 3.2 6.4 0.00 0.00 0.00 33 1017.9
20260509103112 11 324 0.0 4.8 0.00 0.00 0.00 32 1017.9
20260509102505 11 324 0.0 3.2 0.00 0.00 0.00 32 1017.9
20260509102059 11 324 0.0 3.2 0.00 0.00 0.00 32 1017.9
20260509101512 11 324 0.0 3.2 0.00 0.00 0.00 32 1018.0
20260509101057 11 324 0.0 1.6 0.00 0.00 0.00 32 1018.0
20260509100604 11 324 0.0 3.2 0.00 0.00 0.00 32 1018.0
20260509100059 11 324 0.0 3.2 0.00 0.00 0.00 32 1018.1
20260509095501 11 324 0.0 3.2 0.00 0.00 0.00 32 1018.0
20260509095057 11 324 0.0 3.2 0.00 0.00 0.00 32 1018.0
20260509094605 11 324 0.0 3.2 0.00 0.00 0.00 32 1018.1
20260509094056 11 324 0.0 3.2 0.00 0.00 0.00 32 1018.0
20260509093603 11 324 0.0 3.2 0.00 0.00 0.00 31 1018.0
20260509093054 11 324 0.0 3.2 0.00 0.00 0.00 31 1017.9
20260509092600 11 324 1.6 3.2 0.00 0.00 0.00 31 1017.9
20260509092002 11 271 0.0 1.6 0.00 0.00 0.00 31 1017.9
20260509091508 11 271 0.0 0.0 0.00 0.00 0.00 30 1018.0
20260509091015 11 271 0.0 3.2 0.00 0.00 0.00 30 1017.9
20260509090520 11 271 0.0 3.2 0.00 0.00 0.00 30 1017.9
20260509090043 11 271 0.0 3.2 0.00 0.00 0.00 30 1017.9
20260509085534 12 271 0.0 3.2 0.00 0.00 0.00 29 1017.9
20260509085042 12 271 0.0 1.6 0.00 0.00 0.00 29 1018.0
20260509084536 12 271 1.6 3.2 0.00 0.00 0.00 28 1017.9
20260509084041 12 271 0.0 3.2 0.00 0.00 0.00 28 1018.0
20260509083548 12 271 0.0 1.6 0.00 0.00 0.00 28 1018.0
20260509083055 13 271 1.6 3.2 0.00 0.00 0.00 27 1018.0
20260509082545 13 263 0.0 4.8 0.00 0.00 0.00 26 1018.0
20260509082053 13 253 1.6 4.8 0.00 0.00 0.00 26 1018.1
20260509081551 14 266 3.2 4.8 0.00 0.00 0.00 26 1018.0
20260509081034 14 225 1.6 4.8 0.00 0.00 0.00 26 1018.0
20260509080542 14 78 0.0 3.2 0.00 0.00 0.00 26 1017.8
20260509080034 15 78 0.0 3.2 0.00 0.00 0.00 26 1017.8
20260509075541 15 78 0.0 3.2 0.00 0.00 0.00 26 1017.7
20260509075045 15 78 1.6 6.4 0.00 0.00 0.00 26 1017.8
20260509074558 15 78 1.6 6.4 0.00 0.00 0.00 26 1017.7
20260509074045 15 76 3.2 6.4 0.00 0.00 0.00 26 1017.7
20260509073553 15 65 3.2 6.4 0.00 0.00 0.00 26 1017.6
20260509073048 15 90 3.2 6.4 0.00 0.00 0.00 26 1017.7
20260509072535 15 81 4.8 6.4 0.00 0.00 0.00 26 1017.8
20260509072042 15 81 4.8 6.4 0.00 0.00 0.00 25 1017.7
20260509071552 15 96 4.8 6.4 0.00 0.00 0.00 25 1017.8
20260509071053 15 94 3.2 6.4 0.00 0.00 0.00 25 1017.8
20260509070548 15 64 1.6 4.8 0.00 0.00 0.00 25 1017.8
20260509070042 16 26 0.0 3.2 0.00 0.00 0.00 24 1017.8
20260509065541 16 26 1.6 4.8 0.00 0.00 0.00 24 1017.9
20260509065032 16 21 1.6 6.4 0.00 0.00 0.00 24 1017.9
20260509064542 16 34 3.2 6.4 0.00 0.00 0.00 24 1017.9
20260509064050 16 27 4.8 6.4 0.00 0.00 0.00 24 1017.9
20260509063556 16 29 3.2 8.0 0.00 0.00 0.00 24 1017.9
20260509063103 16 28 3.2 8.0 0.00 0.00 0.00 24 1017.8
20260509062554 16 22 3.2 8.0 0.00 0.00 0.00 23 1017.9
20260509062059 17 11 3.2 8.0 0.00 0.00 0.00 23 1017.9
20260509061502 17 33 4.8 8.0 0.00 0.00 0.00 23 1017.9
20260509061057 17 30 3.2 8.0 0.00 0.00 0.00 23 1017.9
20260509060604 17 29 4.8 9.7 0.00 0.00 0.00 23 1017.9
20260509060110 17 34 4.8 9.7 0.00 0.00 0.00 23 1017.9
20260509055600 17 33 4.8 8.0 0.00 0.00 0.00 23 1018.0
20260509055004 17 39 4.8 8.0 0.00 0.00 0.00 23 1018.0
20260509054510 17 29 3.2 6.4 0.00 0.00 0.00 23 1018.0
20260509054015 17 28 1.6 3.2 0.00 0.00 0.00 23 1018.1
20260509053506 17 17 1.6 4.8 0.00 0.00 0.00 23 1018.0
20260509053017 17 5 1.6 4.8 0.00 0.00 0.00 22 1018.1
20260509052503 17 5 1.6 4.8 0.00 0.00 0.00 22 1018.1
20260509052058 17 22 1.6 6.4 0.00 0.00 0.00 22 1018.2
20260509051501 17 15 3.2 6.4 0.00 0.00 0.00 22 1018.0
20260509051057 17 13 1.6 4.8 0.00 0.00 0.00 22 1018.1
20260509050603 17 15 3.2 4.8 0.00 0.00 0.00 22 1018.1
20260509050054 18 11 1.6 4.8 0.00 0.00 0.00 22 1018.2
20260509045544 18 9 1.6 3.2 0.00 0.00 0.00 21 1018.2
20260509045051 18 9 1.6 3.2 0.00 0.00 0.00 21 1018.2
20260509044557 18 9 1.6 3.2 0.00 0.00 0.00 21 1018.2
20260509044106 18 15 1.6 4.8 0.00 0.00 0.00 21 1018.2
20260509043555 19 15 0.0 4.8 0.00 0.00 0.00 21 1018.2
20260509043103 19 355 1.6 4.8 0.00 0.00 0.00 21 1018.2
20260509042553 19 294 1.6 4.8 0.00 0.00 0.00 21 1018.2
20260509042102 19 333 1.6 6.4 0.00 0.00 0.00 20 1018.1
20260509041550 19 303 3.2 8.0 0.00 0.00 0.00 20 1018.1
20260509041041 20 291 3.2 12.9 0.00 0.00 0.00 20 1018.1
20260509040551 20 289 6.4 12.9 0.00 0.00 0.00 20 1018.0
20260509040053 20 336 4.8 9.7 0.00 0.00 0.00 20 1018.0
20260509035601 20 355 6.4 9.7 0.00 0.00 0.00 20 1017.9
20260509035052 20 311 4.8 9.7 0.00 0.00 0.00 19 1017.8
20260509034559 20 281 3.2 9.7 0.00 0.00 0.00 19 1017.8
20260509034050 20 291 3.2 12.9 0.00 0.00 0.00 19 1017.7
20260509033540 20 290 4.8 11.3 0.00 0.00 0.00 19 1017.6
20260509033046 20 269 4.8 11.3 0.00 0.00 0.00 19 1017.6
20260509032552 21 254 3.2 8.0 0.00 0.00 0.00 19 1017.5
20260509032059 21 290 3.2 9.7 0.00 0.00 0.00 19 1017.6
20260509031551 21 278 3.2 8.0 0.00 0.00 0.00 18 1017.5
20260509031100 21 284 4.8 8.0 0.00 0.00 0.00 18 1017.4
20260509030549 21 286 3.2 9.7 0.00 0.00 0.00 18 1017.4
20260509030057 21 286 3.2 11.3 0.00 0.00 0.00 18 1017.3
20260509025545 22 265 4.8 12.9 0.00 0.00 0.00 18 1017.3
20260509025040 22 273 6.4 12.9 0.00 0.00 0.00 18 1017.2
20260509024545 22 274 4.8 12.9 0.00 0.00 0.00 18 1017.2
20260509024036 22 304 4.8 8.0 0.00 0.00 0.00 17 1017.1
20260509023543 22 272 3.2 12.9 0.00 0.00 0.00 17 1017.1
20260509023049 22 298 6.4 14.5 0.00 0.00 0.00 17 1017.1
20260509022556 22 296 8.0 14.5 0.00 0.00 0.00 17 1016.9
20260509022047 23 270 8.0 17.7 0.00 0.00 0.00 17 1016.9
20260509021553 23 285 9.7 22.5 0.00 0.00 0.00 16 1016.9
20260509021058 23 276 9.7 22.5 0.00 0.00 0.00 16 1016.8
20260509020502 23 271 8.0 16.1 0.00 0.00 0.00 16 1016.8
20260509020057 23 277 11.3 20.9 0.00 0.00 0.00 16 1016.7
20260509015600 23 288 9.7 25.7 0.00 0.00 0.00 16 1016.7
20260509015002 24 263 11.3 19.3 0.00 0.00 0.00 16 1016.7
20260509014525 24 288 12.9 20.9 0.00 0.00 0.00 16 1016.7
20260509014103 24 295 12.9 25.7 0.00 0.00 0.00 16 1016.7
20260509013507 24 280 16.1 27.4 0.00 0.00 0.00 16 1016.7
20260509013101 24 302 12.9 27.4 0.00 0.00 0.00 16 1016.7
20260509012551 25 291 14.5 25.7 0.00 0.00 0.00 16 1016.7
20260509012059 25 302 16.1 25.7 0.00 0.00 0.00 16 1016.7
20260509011548 25 278 12.9 27.4 0.00 0.00 0.00 16 1016.7
20260509011040 25 289 19.3 30.6 0.00 0.00 0.00 15 1016.7
20260509010548 25 315 16.1 27.4 0.00 0.00 0.00 16 1016.7
20260509010053 25 313 12.9 33.8 0.00 0.00 0.00 15 1016.6
20260509005600 25 300 22.5 33.8 0.00 0.00 0.00 15 1016.6
20260509005052 25 306 11.3 30.6 0.00 0.00 0.00 15 1016.6
20260509004607 25 281 19.3 30.6 0.00 0.00 0.00 15 1016.6
20260509004049 25 324 14.5 33.8 0.00 0.00 0.00 15 1016.6
20260509003555 25 296 17.7 33.8 0.00 0.00 0.00 15 1016.7
20260509003047 25 250 14.5 33.8 0.00 0.00 0.00 15 1016.6
20260509002538 25 221 11.3 30.6 0.00 0.00 0.00 15 1016.6